DW9872 Weather Reports


time (UTC)temp
C
wind
direction
speed
KPH
gust
KPH
rain 1hr
cm
rain 24hr
cm
rain mn
cm
humidity
%
barometer
mb
20260505153037 26 225 4.8 20.9 0.00 0.00 0.00 43 1009.9
20260505123017 18 0.0 1.6 0.00 0.00 0.00 68 1010.9
20260505120017 15 0.0 0.0 0.00 0.00 0.00 76 1010.8
20260505113016 12 0.0 0.0 0.00 0.00 0.00 86 1010.5
20260505100017 12 0.0 0.0 0.00 0.00 0.00 84 1009.8
20260505093017 12 0.0 0.0 0.00 0.00 0.00 82 1009.8
20260505090017 12 0.0 0.0 0.00 0.00 0.00 82 1009.8
20260505083017 12 0.0 0.0 0.00 0.00 0.00 80 1009.7
20260505080017 13 0.0 0.0 0.00 0.00 0.00 78 1009.6
20260505073017 12 0.0 0.0 0.00 0.00 0.00 78 1009.7
20260505070017 12 0.0 0.0 0.00 0.00 0.00 76 1009.9
20260505063017 12 0.0 0.0 0.00 0.00 0.00 76 1009.8
20260505060017 12 0.0 0.0 0.00 0.00 0.00 71 1009.7
20260505053017 13 0.0 0.0 0.00 0.00 0.00 67 1009.7
20260505040017 16 0.0 0.0 0.00 0.00 0.00 57 1009.7
20260505033017 16 0.0 0.0 0.00 0.00 0.00 53 1009.6
20260505030017 17 0.0 1.6 0.00 0.00 0.00 51 1009.7
20260505023017 17 0.0 0.0 0.00 0.00 0.00 50 1009.7
20260505020017 17 0.0 0.0 0.00 0.00 0.00 51 1009.8
20260505013037 17 0.0 1.6 0.00 0.00 0.00 48 1009.7
20260505010017 18 0.0 3.2 0.00 0.00 0.00 46 1009.6
20260505003017 19 0.0 9.7 0.00 0.00 0.00 43 1009.2
20260505000017 20 203 1.6 8.0 0.00 0.00 0.00 41 1009.0
20260504233017 21 203 4.8 27.4 0.00 0.00 0.00 40 1008.7
20260504230017 21 203 4.8 19.3 0.00 0.00 0.00 39 1008.5
20260504223017 22 203 4.8 24.1 0.00 0.00 0.00 39 1008.4
20260504220017 22 203 6.4 17.7 0.00 0.00 0.00 38 1008.5
20260504213017 22 225 6.4 25.7 0.00 0.00 0.00 37 1008.4
20260504210017 23 225 6.4 17.7 0.00 0.00 0.00 35 1008.7
20260504203017 22 225 6.4 29.0 0.00 0.00 0.00 36 1008.8
20260504200037 22 203 8.0 30.6 0.00 0.00 0.00 39 1009.0
20260504193017 22 225 8.0 35.4 0.00 0.00 0.00 38 1009.5
20260504190017 22 225 6.4 24.1 0.00 0.00 0.00 36 1009.7
20260504183017 21 225 6.4 30.6 0.00 0.00 0.00 36 1010.3
20260504180017 21 203 8.0 29.0 0.00 0.00 0.00 37 1010.6
20260504173017 21 225 8.0 29.0 0.00 0.00 0.00 39 1011.1